Location: La Silve
(44.2414°N, 5.8889°E)
Time: 09:08:55
(UTC+00:00)

Lacrosse 5 rocket - Pass Details

Date: 01 December 2020
Orbit: 461 x 634 km, 57.0° (Epoch: 25 January)

Event Time Altitude Azimuth Distance (km) Brightness Sun altitude
Rises 18:22:00 0° 286° (WNW) 2,508 5.8 -25.0°
Reaches altitude 10° 18:25:03 10° 313° (NW) 1,619 4.2 -25.5°
Enters shadow 18:26:16 13° 333° (NNW) 1,433 3.6 -25.7°
